Simultaneous Nadir Overpasses (SNOs) Predictions

Prediction of SNOs between METOP-B and NPP Satellite Orbit:

Table of predicted SNOs for the next 14.0 days since TLE Epoch: 12/21/2024
Index Date (METOP-B) Time (METOP-B) Lat,Lon (METOP-B) SZA (METOP-B ) Date (NPP) Time (NPP) Lat,Lon (NPP) SZA (NPP ) Distance(km) Time Diff (sec)
1 01/03/2025 23:24:21 -74.36, 0.03 82.79 01/03/2025 23:23:13 -74.37, -2.67 82.63 81.09 68
2 01/04/2025 00:15:04 74.15, 166.84 97.03 01/04/2025 00:13:53 74.15, 165.18 97.13 50.28 71
3 01/04/2025 01:05:48 -74.07, -26.04 83.05 01/04/2025 01:04:36 -74.08, -27.30 82.96 38.48 72
4 01/04/2025 01:56:31 73.91, 140.90 96.81 01/04/2025 01:55:18 73.91, 140.42 96.85 14.77 73
5 01/04/2025 02:47:15 -73.82, -51.98 83.27 01/04/2025 02:46:01 -73.83, -52.08 83.24 3.26 74



Historial Predications of SNOs between METOP-B and NPP
